Beaufort, NC

7:22 AM EST on November 21, 2017 (GMT -0500)
Smith

Weather History for KMRH - January, 2012

Change the Weather History Date:

Saturday, January 7, 2012

  Actual Average Record
Temperature  
Mean Temperature 56 °F -  
Max Temperature 61 °F 56 °F 71 °F (2005)
Min Temperature 52 °F 38 °F 18 °F (2014)
Degree Days  
Heating Degree Days 8    
Growing Degree Days 6 (Base 50)    
Moisture  
Dew Point 49 °F    
Average Humidity 78    
Maximum Humidity 93    
Minimum Humidity 57    
Precipitation  
Precipitation 0.00 in - - ()
Sea Level Pressure  
Sea Level Pressure 30.03 in    
Wind  
Wind Speed 10 mph (SW)    
Max Wind Speed 15 mph    
Max Gust Speed 21 mph    
Visibility 9 miles    
Events      
Averages and records for this station are not official NWS values.
T = Trace of Precipitation, MM = Missing Value Source: NWS Daily Summary

Daily Weather History Graph

Daily Weather History Graph

Search for Another Location

Airport or City:

Trip Planner

Search our weather history database for the weather conditions in past years. The results will help you decide how hot, cold, wet, or windy it might be!

Date:

Astronomy

Jan. 07, 2012 Rise Set
Actual Time 7:14 AM EST 5:11 PM EST
Civil Twilight 6:46 AM EST 5:38 PM EST
Nautical Twilight 6:15 AM EST 6:10 PM EST
Astronomical Twilight 5:44 AM EST 6:40 PM EST
Moon 3:54 PM EST (1/7) 5:43 AM EST (1/7)
Length of Visible Light 10h 52m
Length of Day
9h 56m
Waxing Gibbous, 97% of the Moon is Illuminated
Jan 7
Waxing Gibbous
Jan 9
Full
Jan 16
Last Quarter
Jan 23
New
Jan 30
First Quarter

Hourly Weather History & Observations

Time (EST) Temp. Dew Point Humidity Pressure Visibility Wind Dir Wind Speed Gust Speed Precip Events Conditions
12:56 AM 53.1 °F 48.0 °F 83% 30.02 in 10.0 mi SW 9.2 mph - N/A   Clear
2:56 AM 53.1 °F 46.9 °F 80% 30.02 in 10.0 mi SW 11.5 mph - N/A   Clear
3:56 AM 52.0 °F 48.0 °F 86% 30.01 in 10.0 mi WSW 8.1 mph - N/A   Clear
4:56 AM 53.1 °F 46.9 °F 80% 30.02 in 10.0 mi SW 9.2 mph - N/A   Clear
5:56 AM 53.1 °F 46.9 °F 80% 30.02 in 10.0 mi SW 8.1 mph - N/A   Clear
6:56 AM 52.0 °F 45.0 °F 77% 30.03 in 10.0 mi SW 9.2 mph - N/A   Clear
7:56 AM 54.0 °F 46.0 °F 75% 30.04 in 10.0 mi WSW 9.2 mph - N/A   Clear
8:56 AM 55.9 °F 46.0 °F 69% 30.06 in 10.0 mi SW 12.7 mph - N/A   Clear
9:56 AM 57.9 °F 45.0 °F 62% 30.06 in 10.0 mi WSW 11.5 mph - N/A   Clear
10:56 AM 60.1 °F 46.0 °F 60% 30.05 in 10.0 mi SW 15.0 mph 20.7 mph N/A   Clear
12:56 PM 60.1 °F 45.0 °F 57% 30.00 in 10.0 mi WSW 11.5 mph - N/A   Clear
1:56 PM 61.0 °F 46.0 °F 58% 29.99 in 10.0 mi SW 11.5 mph - N/A   Clear
2:56 PM 60.1 °F 48.9 °F 67% 29.99 in 10.0 mi SW 11.5 mph - N/A   Clear
3:56 PM 60.1 °F 51.1 °F 72% 30.01 in 9.0 mi SW 10.4 mph - N/A   Clear
4:56 PM 57.9 °F 52.0 °F 81% 30.01 in 8.0 mi SW 11.5 mph - N/A   Clear
5:56 PM 57.0 °F 52.0 °F 83% 30.04 in 9.0 mi WSW 8.1 mph - N/A   Clear
6:56 PM 55.9 °F 52.0 °F 87% 30.04 in 8.0 mi SW 10.4 mph - N/A   Clear
7:56 PM 57.0 °F 53.1 °F 87% 30.05 in 8.0 mi SW 9.2 mph - N/A   Clear
8:56 PM 55.9 °F 53.1 °F 90% 30.06 in 7.0 mi SW 8.1 mph - N/A   Clear
9:56 PM 55.9 °F 54.0 °F 93% 30.07 in 7.0 mi WSW 9.2 mph - N/A   Clear
10:56 PM 55.9 °F 53.1 °F 90% 30.07 in 8.0 mi WSW 9.2 mph - N/A   Clear
11:56 PM 55.9 °F 53.1 °F 90% 30.08 in 8.0 mi WSW 8.1 mph - N/A   Clear